VRRDF VOHS-VOHS

Flight info

Callsign VRRDF
Flight time N/A
Altitude 3500
Route VFR
Aircraft C172/L-SFG/C

Departure

Time 2026-04-19 06:34
Airport Rajiv Gandhi International Airport (VOHS)

Arrival

Time N/A
Airport Rajiv Gandhi International Airport (VOHS)
Time Latitude Longitude Altitude Speed Heading
2026-04-19 06:25 17.23511 78.44954 2002 ft 0 kts 175°
2026-04-19 06:29 17.23499 78.44945 2002 ft 8 kts 220°
2026-04-19 06:29 17.23397 78.44926 2002 ft 19 kts 196°
2026-04-19 06:30 17.23239 78.44924 2001 ft 27 kts 178°
2026-04-19 06:30 17.23062 78.44928 2001 ft 23 kts 179°
2026-04-19 06:30 17.23007 78.44929 2002 ft 0 kts 179°
2026-04-19 06:33 17.22994 78.44929 2002 ft 6 kts 181°
2026-04-19 06:33 17.22931 78.44926 2003 ft 9 kts 191°
2026-04-19 06:33 17.22905 78.44885 2002 ft 8 kts 269°
2026-04-19 06:33 17.22902 78.44637 1998 ft 59 kts 269°
2026-04-19 06:34 17.22900 78.44101 2111 ft 75 kts 271°
2026-04-19 06:34 17.22903 78.43566 2324 ft 74 kts 271°
2026-04-19 06:34 17.22896 78.43035 2514 ft 74 kts 269°
2026-04-19 06:34 17.22890 78.42472 2636 ft 87 kts 270°
2026-04-19 06:35 17.22873 78.41848 2808 ft 91 kts 269°
2026-04-19 06:35 17.22819 78.41188 3030 ft 89 kts 266°
2026-04-19 06:35 17.22795 78.40541 3232 ft 91 kts 270°
2026-04-19 06:35 17.22787 78.39849 3316 ft 101 kts 266°
2026-04-19 06:36 17.22417 78.39243 3390 ft 112 kts 203°
2026-04-19 06:36 17.21608 78.39285 3412 ft 119 kts 173°
2026-04-19 06:36 17.20780 78.39474 3403 ft 125 kts 154°
2026-04-19 06:36 17.20372 78.39890 3333 ft 126 kts 118°
2026-04-19 06:37 17.20262 78.40782 3261 ft 123 kts 89°
2026-04-19 06:37 17.20281 78.41679 3166 ft 124 kts 89°
2026-04-19 06:37 17.20298 78.42583 3065 ft 123 kts 90°
2026-04-19 06:37 17.20322 78.43464 3020 ft 120 kts 89°
2026-04-19 06:38 17.20344 78.44326 2999 ft 117 kts 90°
2026-04-19 06:38 17.20362 78.45165 3016 ft 114 kts 89°
2026-04-19 06:38 17.20393 78.45988 3015 ft 113 kts 88°
2026-04-19 06:38 17.20415 78.46809 2996 ft 114 kts 90°
2026-04-19 06:39 17.20435 78.47644 2951 ft 115 kts 88°
2026-04-19 06:39 17.20629 78.48385 2903 ft 101 kts 46°
2026-04-19 06:39 17.21260 78.48588 2792 ft 99 kts
2026-04-19 06:39 17.21945 78.48599 2722 ft 97 kts
2026-04-19 06:40 17.22607 78.48549 2658 ft 95 kts 337°
2026-04-19 06:40 17.22992 78.48041 2572 ft 95 kts 275°
2026-04-19 06:40 17.22958 78.47343 2459 ft 98 kts 265°
2026-04-19 06:40 17.22922 78.46635 2356 ft 97 kts 270°
2026-04-19 06:41 17.22917 78.45923 2233 ft 99 kts 270°
2026-04-19 06:41 17.22910 78.45206 2072 ft 95 kts 270°
2026-04-19 06:41 17.22901 78.44587 1998 ft 74 kts 269°
2026-04-19 06:41 17.22893 78.44028 1996 ft 89 kts 269°
2026-04-19 06:42 17.22867 78.43403 2233 ft 82 kts 269°
2026-04-19 06:42 17.22849 78.42821 2462 ft 78 kts 269°
2026-04-19 06:42 17.22842 78.42254 2658 ft 79 kts 270°
2026-04-19 06:42 17.22848 78.41656 2803 ft 84 kts 270°
2026-04-19 06:43 17.22839 78.41035 2931 ft 89 kts 270°
2026-04-19 06:43 17.22836 78.40365 2992 ft 100 kts 270°
2026-04-19 06:43 17.22784 78.39610 3029 ft 107 kts 253°
2026-04-19 06:43 17.22206 78.39173 3050 ft 114 kts 183°
2026-04-19 06:44 17.21402 78.39204 3063 ft 117 kts 179°
2026-04-19 06:44 17.20636 78.39450 3065 ft 121 kts 132°
2026-04-19 06:44 17.20487 78.40290 3090 ft 120 kts 88°
2026-04-19 06:44 17.20514 78.41169 3092 ft 122 kts 89°
2026-04-19 06:45 17.20547 78.42065 3077 ft 123 kts 88°
2026-04-19 06:45 17.20573 78.42956 3026 ft 121 kts 89°
2026-04-19 06:45 17.20596 78.43821 2997 ft 118 kts 89°
2026-04-19 06:45 17.20616 78.44672 2972 ft 116 kts 88°
2026-04-19 06:46 17.20651 78.45505 2974 ft 114 kts 85°
2026-04-19 06:46 17.20697 78.46339 2944 ft 114 kts 89°
2026-04-19 06:46 17.20745 78.47166 2922 ft 115 kts 87°
2026-04-19 06:46 17.20841 78.47985 2875 ft 111 kts 63°
2026-04-19 06:47 17.21463 78.48312 2755 ft 109 kts 357°
2026-04-19 06:47 17.22208 78.48290 2677 ft 101 kts 359°
2026-04-19 06:47 17.22870 78.48181 2613 ft 97 kts 318°
2026-04-19 06:47 17.22967 78.47499 2455 ft 103 kts 266°
2026-04-19 06:48 17.22928 78.46760 2368 ft 101 kts 268°
2026-04-19 06:48 17.22914 78.46057 2245 ft 94 kts 270°
2026-04-19 06:48 17.22909 78.45385 2105 ft 91 kts 270°
2026-04-19 06:48 17.22902 78.44737 2003 ft 84 kts 270°
2026-04-19 06:49 17.22898 78.44187 1993 ft 80 kts 268°
2026-04-19 06:49 17.22881 78.43571 2125 ft 89 kts 271°
2026-04-19 06:49 17.22885 78.42913 2331 ft 90 kts 269°
2026-04-19 06:49 17.22881 78.42276 2568 ft 88 kts 271°
2026-04-19 06:50 17.22884 78.41644 2786 ft 87 kts 271°
2026-04-19 06:50 17.22878 78.40982 2890 ft 96 kts 270°
2026-04-19 06:50 17.22853 78.40268 2948 ft 103 kts 266°
2026-04-19 06:50 17.22764 78.39513 3002 ft 106 kts 249°
2026-04-19 06:51 17.22151 78.39108 2986 ft 115 kts 181°
2026-04-19 06:51 17.21364 78.39240 3037 ft 114 kts 175°
2026-04-19 06:51 17.20577 78.39348 3077 ft 115 kts 162°
2026-04-19 06:51 17.20089 78.39966 3082 ft 118 kts 95°
2026-04-19 06:52 17.20128 78.40817 3088 ft 120 kts 88°
2026-04-19 06:52 17.20164 78.41708 3075 ft 121 kts 89°
2026-04-19 06:52 17.20172 78.42579 3058 ft 117 kts 90°
2026-04-19 06:52 17.20181 78.43416 3022 ft 114 kts 90°
2026-04-19 06:53 17.20199 78.44250 2974 ft 114 kts 89°
2026-04-19 06:53 17.20233 78.45072 2949 ft 112 kts 87°
2026-04-19 06:53 17.20280 78.45883 2922 ft 114 kts 88°
2026-04-19 06:53 17.20325 78.46705 2929 ft 109 kts 84°
2026-04-19 06:54 17.20388 78.47521 2854 ft 115 kts 90°
2026-04-19 06:54 17.20392 78.48318 2923 ft 108 kts 89°
2026-04-19 06:54 17.20402 78.49096 2934 ft 107 kts 89°
2026-04-19 06:54 17.20653 78.49769 2979 ft 103 kts 28°
2026-04-19 06:55 17.21363 78.49863 2955 ft 105 kts
2026-04-19 06:55 17.22096 78.49860 2942 ft 106 kts 357°
2026-04-19 06:55 17.22823 78.49713 2930 ft 106 kts 326°
2026-04-19 06:55 17.23099 78.49030 2817 ft 113 kts 265°
2026-04-19 06:56 17.22966 78.48187 2649 ft 120 kts 264°
2026-04-19 06:56 17.22915 78.47345 2508 ft 107 kts 269°
2026-04-19 06:56 17.22911 78.46641 2362 ft 91 kts 271°
2026-04-19 06:56 17.22913 78.46021 2202 ft 82 kts 271°
2026-04-19 06:57 17.22908 78.45424 2068 ft 83 kts 270°
2026-04-19 06:57 17.22906 78.44845 2002 ft 71 kts 270°
2026-04-19 06:57 17.22900 78.44292 2016 ft 87 kts 270°
2026-04-19 06:57 17.22889 78.43680 2262 ft 82 kts 268°
2026-04-19 06:58 17.22872 78.43094 2494 ft 79 kts 270°
2026-04-19 06:58 17.22860 78.42526 2711 ft 78 kts 269°
2026-04-19 06:58 17.22855 78.41936 2889 ft 82 kts 269°
2026-04-19 06:58 17.22831 78.41321 3032 ft 89 kts 268°
2026-04-19 06:59 17.22803 78.40656 3087 ft 94 kts 268°
2026-04-19 06:59 17.22760 78.39957 3095 ft 101 kts 268°
2026-04-19 06:59 17.22491 78.39302 3108 ft 105 kts 214°
2026-04-19 06:59 17.21771 78.39210 3121 ft 108 kts 179°
2026-04-19 07:00 17.21004 78.39252 3089 ft 110 kts 176°
2026-04-19 07:00 17.20442 78.39709 3067 ft 109 kts 110°
2026-04-19 07:00 17.20394 78.40517 2981 ft 113 kts 90°
2026-04-19 07:00 17.20397 78.41340 2923 ft 113 kts 90°
2026-04-19 07:01 17.20391 78.42162 2883 ft 112 kts 92°
2026-04-19 07:01 17.20369 78.42977 2813 ft 113 kts 92°
2026-04-19 07:01 17.20353 78.43808 2732 ft 115 kts 91°
2026-04-19 07:01 17.20353 78.44630 2737 ft 109 kts 91°
2026-04-19 07:02 17.20358 78.45410 2755 ft 106 kts 89°
2026-04-19 07:02 17.20386 78.46143 2864 ft 89 kts 87°
2026-04-19 07:02 17.20437 78.46767 2930 ft 92 kts 91°
2026-04-19 07:02 17.20420 78.47428 2915 ft 92 kts 93°
2026-04-19 07:03 17.20408 78.48095 2906 ft 92 kts 89°
2026-04-19 07:03 17.20428 78.48779 2844 ft 96 kts 87°
2026-04-19 07:03 17.20633 78.49410 2830 ft 91 kts 41°
2026-04-19 07:03 17.21219 78.49549 2774 ft 90 kts
2026-04-19 07:04 17.21833 78.49553 2738 ft 88 kts 358°
2026-04-19 07:04 17.22481 78.49491 2749 ft 101 kts 339°
2026-04-19 07:04 17.22936 78.48921 2748 ft 106 kts 277°
2026-04-19 07:04 17.22450 78.48423 2348 ft 131 kts 169°
2026-04-19 07:05 17.22242 78.49204 2109 ft 121 kts 58°
2026-04-19 07:05 17.22747 78.49708 2250 ft 107 kts 24°
2026-04-19 07:05 17.23571 78.49758 1990 ft 117 kts 342°
2026-04-19 07:05 17.24113 78.49240 1977 ft 113 kts 290°